Regional Weather Roundup
Issued by NWS Newport/Morehead, NC

Current Version | Previous Version | Graphics & Text | Print | Product List | Glossary On
Versions: 1 2 3 4 5 6 7 8 9 10 11 12 13 14 15 16 17 18 19 20 21 22 23 24 25 26 27 28 29 30 31 32 33 34 35 36 37 38 39 40 41 42 43 44 45 46 47 48 49 50
000 ASUS42 KMHX 102113 RWRMHX WEATHER ROUNDUP FOR EASTERN NORTH CAROLINA NATIONAL WEATHER SERVICE NEWPORT/MOREHEAD CITY NC 400 PM EST WED FEB 10 2016 NOTE: "FAIR" INDICATES FEW OR NO CLOUDS BELOW 12,000 FEET WITH NO SIGNIFICANT WEATHER AND/OR OBSTRUCTIONS TO VISIBILITY NCZ015>017-031-032-045>047-102-103-102200- NORTH COAST CITY SKY/WX TMP DP RH WIND PRES REMARKS EDENTON MOSUNNY 41 18 39 W13 29.86R ELIZABETH CITY MOSUNNY 41 19 41 W15 29.83R KITTY HAWK CLEAR 41 20 43 W9G16 29.83R MANTEO MOSUNNY 40 21 45 W12 29.84R $$ NCZ045>047-081-094-103-104-102200- CENTRAL COAST CITY SKY/WX TMP DP RH WIND PRES REMARKS FRISCO SUNNY 41 22 46 W9G18 29.86R SWANQUARTER N/A 41 N/A N/A W17 29.82S $$ NCZ095-097-098-100-101-102200- SOUTHERN COAST CITY SKY/WX TMP DP RH WIND PRES REMARKS BEAUFORT MOSUNNY 41 20 43 W15 29.87R CEDAR ISLAND N/A 41 N/A N/A W6G20 29.91R JACKSONVILLE MOSUNNY 40 18 41 W14 29.89R PINEY ISLAND CLEAR N/A N/A N/A W13 29.86R WILMINGTON CLOUDY 42 19 39 W17 29.92R $$ NCZ011>013-027>030-043-044-078>080-089-090>093-098-102200- COASTAL PLAIN CITY SKY/WX TMP DP RH WIND PRES REMARKS AHOSKIE CLOUDY 39 18 43 CALM 29.85R CLINTON MOSUNNY 39 20 47 W13 29.92R ELIZABETHTOWN CLOUDY 38 17 42 W13G18 29.93R GOLDSBORO CLOUDY 39 16 38 W12 29.87R GREENVILLE CLOUDY 39 18 41 W8 29.90R HAVELOCK PTSUNNY 43 17 35 W14 29.88R KENANSVILLE CLOUDY 39 17 41 W12 29.91R KINSTON PTSUNNY 41 16 36 W8 29.89R NEW BERN SUNNY 42 17 36 W15 29.88R RICHLANDS PTSUNNY 39 16 38 W8G17 29.90R ROCKY MOUNT CLOUDY 38 17 42 W10 29.87R WASHINGTON PTSUNNY 40 18 39 W17 29.87R WHITEVILLE CLOUDY 38 17 41 W7G16 29.94R $$ AMZ130-135-150-152-154-156-158-170-250-252-270-ANZ085-086-088-633-658-670-102200- MARINE OBSERVATIONS STATION/POSITION TIME TEMP WIND PRES WAVE SWELL AIR SEA DIR/SP/G HT/PER HT/PER (UTC) (F) (DEG/KT/KT) (MB) (FT/S) (FT/S) CHESAPEAKE LIGHT 2100 39 290/ 12/ 14 1010.2 64 E VA BEACH 2050 38 50 270/ 12/ 17 1009.4 6/12 5/12 DUCK 2000 38 240/ 16/ 18 1009.2 2 E DUCK 2011 44 N/A 3/13 2/13 OREGON INLET 2000 40 43 270/ 7/ 10 1010.0 13E OREGON INLT 2100 47 N/A 5/13 3/13 HATTERAS CG 2000 39 49 250/ 13/ 16 1010.5 DIAMOND BUOY 2050 42 72 280/ 14/ 19 1011.1 6/ 6 5/ 8 CAPE LOOKOUT NOT AVBL BEAUFORT LAB 2000 41 46 230/ 7/ 14 1010.1 30 SE NEW RVR IN 2008 42 60 1011.5 30 SE NEW RVR IN 2025 60 N/A 7/ 9 2/13 27 SE WRIGHTSVLE 2008 42 60 280/ 16/ 23 1010.6 5 SE WRIGHTSVLE 2008 42 51 280/ 17/ 23 1012.2 225 S CAPE HAT 2050 56 68 270/ 33/ 43 N/A 17/10 13/10 41 SE CHARLESTON 2050 43 63 280/ 25/ 31 1015.1 7/ 7 2/15 $$

USA.gov is the U.S. government's official web portal to all federal, state and local government web resources and services.